This is the latest recevied weather packets stored in our database for station/object KB2AHZ. If no packets are shown the sender has not sent any weather packets the latest 10 day(s).
| Time | Temp. | Humidity | Pressure | Rain* | Wind** | Luminosity | Snow |
|---|---|---|---|---|---|---|---|
| 1777830509 | 16.11° C | 36% | 1018.8 hPa | 0 mm | - | 940 W/m² | - |
| 1777830208 | 16.67° C | 36% | 1018.8 hPa | 0 mm | - | 942 W/m² | - |
| 1777829903 | 16.11° C | 36% | 1018.7 hPa | 0 mm | - | 945 W/m² | - |
| 1777829599 | 15.56° C | 36% | 1018.8 hPa | 0 mm | - | 949 W/m² | - |
| 1777829296 | 15.56° C | 37% | 1018.8 hPa | 0 mm | - | 950 W/m² | - |
| 1777828994 | 15.56° C | 40% | 1018.9 hPa | 0 mm | - | 952 W/m² | - |
| 1777828690 | 15° C | 38% | 1018.8 hPa | 0 mm | - | 954 W/m² | - |
| 1777828387 | 15.56° C | 40% | 1018.9 hPa | 0 mm | - | 953 W/m² | - |
| 1777828084 | 15.56° C | 37% | 1019 hPa | 0 mm | - | 955 W/m² | - |
| 1777827780 | 15° C | 41% | 1019.2 hPa | 0 mm | - | 954 W/m² | - |
| 1777827477 | 15° C | 38% | 1019 hPa | 0 mm | - | 956 W/m² | - |
| 1777827175 | 15° C | 39% | 1019.3 hPa | 0 mm | - | 953 W/m² | - |
| 1777826870 | 15° C | 39% | 1019.1 hPa | 0 mm | - | 953 W/m² | - |
| 1777826569 | 15° C | 40% | 1019.1 hPa | 0 mm | - | 949 W/m² | - |
| 1777826264 | 14.44° C | 40% | 1019.3 hPa | 0 mm | - | 948 W/m² | - |
| 1777825963 | 15° C | 40% | 1019.2 hPa | 0 mm | - | 945 W/m² | - |
| 1777825659 | 15.56° C | 42% | 1019.6 hPa | 0 mm | - | 942 W/m² | - |
| 1777825357 | 14.44° C | 39% | 1019.4 hPa | 0 mm | - | 938 W/m² | - |
| 1777825054 | 15° C | 41% | 1019.5 hPa | 0 mm | - | 930 W/m² | - |
| 1777824749 | 14.44° C | 43% | 1019.8 hPa | 0 mm | - | 929 W/m² | - |
| 1777824447 | 14.44° C | 39% | 1019.6 hPa | 0 mm | - | 924 W/m² | - |
| 1777824143 | 15° C | 43% | 1019.4 hPa | 0 mm | - | 918 W/m² | - |
| 1777823839 | 13.89° C | 42% | 1019.9 hPa | 0 mm | - | 910 W/m² | - |
| 1777823537 | 13.89° C | 40% | 1019.5 hPa | 0 mm | - | 904 W/m² | - |
| 1777823234 | 14.44° C | 41% | 1019.8 hPa | 0 mm | - | 899 W/m² | - |
* Rain latest hour (hover to see other rain measurements)
** Current wind speed in m/s (hover to see current wind gust speed)